Location: Newark
(45.2500°N, 7.5833°E)
Time: 04:58:42
(UTC+00:00)

Vanguard 3 - All Passes

Search period start: 26 January 2020 00:00
Search period end: 05 February 2020 00:00
Orbit: 507 x 3263 km, 33.4° (Epoch: 25 January)

Date Brightness Start Highest point End Pass type
(mag) Time Alt. Az. Time Alt. Az. Time Alt. Az.
26 Jan - 14:40:59 10° SSW 14:55:48 30° SE 15:10:44 10° E daylight
26 Jan - 16:51:52 10° SW 17:10:19 49° SSE 17:25:54 10° E visible
26 Jan - 19:06:49 10° WSW 19:25:25 54° S 19:38:23 10° ESE visible
26 Jan - 21:24:00 10° W 21:38:52 37° SSW 21:48:34 10° SSE visible
26 Jan - 23:45:13 10° WSW 23:49:33 12° SW 23:53:16 10° SSW visible
27 Jan - 13:29:13 10° S 13:40:30 20° SE 13:52:37 10° E daylight
27 Jan - 15:36:59 10° SW 15:54:03 42° SSE 16:10:27 10° E daylight
27 Jan - 17:50:11 10° WSW 18:09:15 55° S 18:24:11 10° ESE visible
27 Jan - 20:06:22 10° W 20:23:54 48° SSW 20:35:41 10° SE visible
27 Jan - 22:24:45 10° W 22:36:02 24° SW 22:44:02 10° S visible
28 Jan - 12:23:36 10° SE 12:25:52 10° SE 12:28:10 10° ESE daylight
28 Jan - 14:23:18 10° SSW 14:38:10 33° SE 14:54:00 10° E daylight
28 Jan - 16:34:24 10° SW 16:52:48 52° SSE 17:09:18 10° E visible
28 Jan - 18:49:14 10° WSW 19:08:08 54° S 19:22:01 10° ESE visible
28 Jan - 21:06:23 10° W 21:21:46 37° SSW 21:32:13 10° SSE visible
28 Jan - 23:28:42 10° WSW 23:32:33 12° SW 23:35:56 10° SW visible
29 Jan - 13:11:16 10° S 13:22:54 23° SE 13:36:01 10° E daylight
29 Jan - 15:19:36 10° SW 15:36:26 45° SSE 15:53:39 10° E daylight
29 Jan - 17:32:46 10° WSW 17:51:49 56° S 18:07:39 10° ESE visible
29 Jan - 19:48:45 10° W 20:06:40 47° SSW 20:19:18 10° SE visible
29 Jan - 22:07:21 10° W 22:18:55 23° SW 22:27:25 10° S visible
30 Jan - 12:02:55 10° SE 12:08:21 12° SE 12:14:14 10° ESE daylight
30 Jan - 14:05:56 10° SSW 14:20:32 35° SE 14:37:04 10° E daylight
30 Jan - 16:17:07 10° WSW 16:35:14 54° SSE 16:52:34 10° E daylight
30 Jan - 18:31:46 10° W 18:50:46 54° S 19:05:32 10° ESE visible
30 Jan - 20:48:48 10° W 21:04:33 35° SW 21:15:43 10° SSE visible
30 Jan - 23:12:46 10° WSW 23:15:26 11° SW 23:17:54 10° SW visible
31 Jan - 12:53:42 10° S 13:05:20 25° SE 13:19:08 10° E daylight
31 Jan - 15:02:25 10° SW 15:18:49 47° SSE 15:36:41 10° E daylight
31 Jan - 17:15:29 10° WSW 17:34:18 57° S 17:50:59 10° ESE visible
31 Jan - 19:31:14 10° W 19:49:18 46° SSW 20:02:47 10° SE visible
31 Jan - 21:50:01 10° W 22:01:41 22° SW 22:10:36 10° S visible
01 Feb - 11:44:16 10° SSE 11:50:53 14° SE 11:58:24 10° ESE daylight
01 Feb - 13:48:47 10° SSW 14:02:56 38° SSE 14:19:57 10° E daylight
01 Feb - 16:00:01 10° WSW 16:17:39 55° S 16:35:40 10° E daylight
01 Feb - 18:14:25 10° W 18:33:17 54° SSW 18:48:54 10° ESE visible
01 Feb - 20:31:20 10° W 20:47:11 34° SW 20:59:03 10° SSE visible
02 Feb - 12:36:26 10° S 12:47:48 27° SE 13:02:02 10° E daylight
02 Feb - 14:45:27 10° SW 15:01:14 49° SSE 15:19:35 10° E daylight
02 Feb - 16:58:21 10° WSW 17:16:45 57° S 17:34:11 10° ESE visible
02 Feb - 19:13:51 10° W 19:31:50 45° SSW 19:46:06 10° SE visible
02 Feb - 21:32:51 10° W 21:44:21 21° SW 21:53:31 10° S visible
03 Feb - 11:26:21 10° SSE 11:33:28 15° SE 11:41:55 10° E daylight
03 Feb - 13:31:51 10° SSW 13:45:23 40° SSE 14:02:41 10° E daylight
03 Feb - 15:43:05 10° WSW 16:00:05 56° S 16:18:39 10° ESE daylight
03 Feb - 17:57:13 10° W 18:15:44 53° SSW 18:32:07 10° SE visible
03 Feb - 20:13:59 10° W 20:29:44 32° SW 20:42:10 10° SSE visible
04 Feb - 12:19:26 10° SSW 12:30:22 28° SE 12:44:45 10° E daylight
04 Feb - 14:28:39 10° SW 14:43:41 51° SSE 15:02:20 10° E daylight
04 Feb - 16:41:22 10° WSW 16:59:10 57° S 17:17:13 10° ESE visible
04 Feb - 18:56:35 10° W 19:14:18 43° SSW 19:29:14 10° SE visible
04 Feb - 21:15:53 10° W 21:26:54 19° SW 21:36:09 10° S visible
